Location: *
(32.8667°N, 13.1833°E)
Time: 02:39:02
(UTC+00:00)

SL-16 R/B - Pass Details

Date: 18 July 2019
Orbit: 843 x 847 km, 71.0° (Epoch: 20 August)

Event Time Altitude Azimuth Distance (km) Brightness Sun altitude
Exits shadow 22:34:20 26° 41° (NE) 1,621 3.9 -35.4°
Drops below altitude 10° 22:36:46 10° 31° (NNE) 2,466 5.1 -35.5°
Sets 22:39:15 0° 27° (NNE) 3,403 6.0 -35.6°
